Back to catalog

GUANGCHUAN 01

AliveCommunicationsVLEO
NORAD 62111·PAYLOAD·🇨🇳 China

Launched Nov 27, 2024 from Jiuquan Satellite Launch Center

Loading…

Next Passes (next 24 hours)

TLE

FreshSource: Space-Track

Epoch: Sep 14, 2026, 13:19 UTC

1 62111U 24221A   26257.55491064  .00002094  00000-0  12895-3 0  9991
2 62111  49.9433  86.9645 0007077 299.4233  60.6011 15.14338042 99739

Track GUANGCHUAN 01 in real time with AllMySat

Download on the App Store